Location: Unspecified
(47.6579°N, 23.5637°E)
Time: 10:54:05
(UTC+02:00)

Envisat - Pass Details

Date: 06 December 2021
Orbit: 764 x 766 km, 98.2° (Epoch: 26 January)

Event Time Altitude Azimuth Distance (km) Brightness Sun altitude
Rises 04:36:54 0° 23° (NNE) 3,245 6.5 -33.1°
Reaches altitude 10° 04:39:32 10° 35° (NE) 2,313 5.8 -32.6°
Maximum altitude 04:43:55 28° 94° (E) 1,404 4.9 -31.9°
Drops below altitude 10° 04:48:15 10° 153° (SSE) 2,297 5.7 -31.1°
Sets 04:50:50 0° 165° (SSE) 3,217 6.4 -30.7°
